Regional Weather Roundup
Issued by NWS

Home | Current Version | Previous Version | Graphics & Text | Print | Product List | Glossary On
Versions: 1 2 3 4 5 6 7 8 9 10 11 12 13 14 15 16 17 18 19 20 21 22 23 24 25 26 27 28 29 30 31 32 33 34 35 36 37 38 39 40 41 42 43 44 45 46 47 48 49 50
000
ASUS43 KFSD 151402
RWRSD

WEATHER ROUNDUP FOR SOUTH DAKOTA
NATIONAL WEATHER SERVICE SIOUX FALLS SD
800 AM CST SUN JAN 15 2017

NOTE: "FAIR" INDICATES FEW OR NO CLOUDS BELOW 12,000 FEET WITH NO
SIGNIFICANT WEATHER AND/OR OBSTRUCTIONS TO VISIBILITY.


SDZ001>005-009-010-012>017-151500-
NORTHWEST AND NORTH CENTRAL SOUTH DAKOTA

CITY           SKY/WX    TMP DP  RH WIND       PRES   REMARKS
BUFFALO          N/A     18   9  68 SW3       30.04F
FAITH            N/A     15  11  83 SW7       30.14S WCI   5
MOBRIDGE       CLOUDY    -2  -9  72 E6        30.15F WCI -14
$$

SDZ012>016-024>037-041>051-057-063-072>074-151500-
SOUTHWEST AND SOUTH CENTRAL SOUTH DAKOTA

CITY           SKY/WX    TMP DP  RH WIND       PRES   REMARKS
RAPID CTY ARPT CLOUDY    19   1  45 W6        30.12S WCI  11
PIERRE         CLOUDY     2  -3  80 W6        30.21S WCI  -9
CUSTER         CLOUDY    22  12  65 NW3       30.09S
ELLSWORTH AFB  CLOUDY    11  -5  48 W7        30.11S WCI   0
PHILIP         CLOUDY    -2  -5  87 W10       30.20R WCI -19
PINE RIDGE     CLEAR      6   4  91 CALM      30.16S
SPEARFISH      FAIR      19   0  42 S7        30.11F WCI  10
WINNER         FAIR      16  13  88 W5        30.20S WCI   9
$$

SDZ004>011-016>023-039-040-151500-
NORTHEAST SOUTH DAKOTA

CITY           SKY/WX    TMP DP  RH WIND       PRES   REMARKS
ABERDEEN       CLOUDY    -6 -11  79 S7        30.23F WCI -20
WATERTOWN      CLOUDY     5   2  87 S7        30.22S WCI  -7
BROOKINGS      CLOUDY    10   7  87 SE7       30.25S WCI  -1
SISSETON         N/A     20  13  74 SW10      30.21F WCI   9
$$

SDZ017-020-022-023-036>040-048>070-151500-
SOUTHEAST SOUTH DAKOTA

CITY           SKY/WX    TMP DP  RH WIND       PRES   REMARKS
SIOUX FALLS    CLOUDY     6   3  87 CALM      30.28F
HURON          CLOUDY     9   7  92 S5        30.24S WCI   1
CHAMBERLAIN    CLOUDY     7   4  90 SW3       30.22S
MITCHELL       CLOUDY    11   8  88 S9        30.26F WCI  -2
YANKTON        CLOUDY    12  10  92 SE6       30.29F WCI   3
$$

ABBREVIATIONS USED IN REMARKS
   TC - TEMPERATURE IN CELSIUS
  WCI - WIND CHILL INDEX
   HX - HEAT INDEX
  VSB - VISIBILITY





USA.gov is the U.S. government's official web portal to all federal, state and local government web resources and services.